STARLINK-31009, 58530

Orbit data source: Space-Track

STARLINK-31009, 58530 is a payload satellite owned by SpaceX/Seattle (US) in LEO that was launched on Thu, 07 Dec 2023 UTC via an FALCON 9 launch vehicle from the Air Force Eastern Test Range (AFETR). Payload-class satellites include a variety of spacecraft equipped with specific instruments for various scientific and technological missions. These include communications satellites like Starlink; space stations such as the ISS; scientific satellites like the Hubble; Earth observation satellites from companies like Planet Labs, Umbra, and HawkEye 360; GPS; miniature CubeSats for education and research; and military/defense satellites.

Loading next visibility...
Identifier
58530, 2023-191Y
Orbit
LEO
Country
Flag of USUS
Related business
Manufacturer
SpaceX/Seattle
Mission
Operational Commercial Communications
Bus & Motor
STARLINK V2M, Unknown motor
Mass
730 kg wet, ~700 kg dry
Launch date (UTC)
2023-12-07 (3 years ago)
Launch vehicle
FALCON 9
Launch site
Air Force Eastern Test Range (AFETR)
Object type
Payload
Rocket body
Debris
Shape & HBR
Box + 2 Pan, 17.7 m
Radar Cross Section
33.884 m², Large (>1 m²)

Expand to show TLE details & history
Last TLE update: 3 days ago

TLE from 3 days ago
0 STARLINK-31009
1 58530U 23191Y   26170.50979031  .00000035  00000-0  10783-4 0  9998
2 58530  42.9995 248.3803 0001164 273.5688  86.5030 15.27579375141065
Epoch: 2026-06-19T12:14Z
TLE epoch observation values (Epoch: 2026-06-19T12:14:05.882Z)
Latitude
-0.00007°
Longitude
157.11798°
Altitude
482.778 km
Speed
7.626 km/s
True Right ascension
16h 33m 31s
True Declination
0° 00' 00"
Sunlit
Object was in full shadow at epoch
Visualization orbit readout
Latitude
Unknown
Longitude
Unknown
Altitude
Unknown
Speed
Unknown
Apparent Right ascension
Unknown
Apparent Declination
Unknown
Sunlit
N/A
Visualization observer readout
Local Sidereal Time
21:33:34
Azimuth
Unknown
Elevation
Unknown
Doppler factor
Unknown
Orbital elements
Apogee altitude
485.795 km
Perigee altitude
484.197 km
Semi-major axis
6,863.133 km
Eccentricity
0.00012
Inclination
42.9995°
RAAN
248.3803°
Arg. of periapsis
273.5688°
True anomaly
86.51631°
Mean anomaly
86.503°
Eccentric anomaly
86.50966°
Mean motion
3.81733 °/min
Orbital period
94.31 mins
BSTAR
0.000010783
Loading maneuver chart data...
Computing Atmospheric mass density...
Loading historical data...
Loading historical data...
Loading historical data...
Loading historical data...
Loading historical data...
Loading historical data...
Loading historical data...

Documentation

Showing up to 5 results
|